| time (UTC) | temp C | wind direction | speed KPH | gust KPH | rain 1hr cm | rain 24hr cm | rain mn cm | humidity % | barometer mb |
| 20260507120414 | 19 | 25 | 1.6 | 6.4 | 0.00 | 0.00 | 0.00 | 81 | 1010.7 |
| 20260507115414 | 19 | 28 | 0.0 | 4.8 | 0.00 | 0.00 | 0.00 | 81 | 1010.7 |
| 20260507114411 | 19 | 28 | 0.0 | 8.0 | 0.00 | 0.00 | 0.00 | 81 | 1009.9 |
| 20260507113410 | 19 | 10 | 1.6 | 6.4 | 0.00 | 0.00 | 0.00 | 81 | 1009.9 |
| 20260507112413 | 19 | 25 | 1.6 | 11.3 | 0.00 | 0.00 | 0.00 | 81 | 1009.7 |
| 20260507111414 | 19 | 17 | 0.0 | 8.0 | 0.00 | 0.00 | 0.00 | 81 | 1009.7 |
| 20260507110413 | 19 | 16 | 3.2 | 6.4 | 0.00 | 0.00 | 0.00 | 81 | 1009.7 |
| 20260507105410 | 19 | 15 | 1.6 | 11.3 | 0.00 | 0.00 | 0.00 | 81 | 1009.6 |
| 20260507104414 | 19 | 15 | 0.0 | 3.2 | 0.00 | 0.00 | 0.00 | 81 | 1009.6 |
| 20260507103410 | 19 | 15 | 0.0 | 4.8 | 0.00 | 0.00 | 0.00 | 81 | 1009.6 |
| 20260507102410 | 19 | 15 | 0.0 | 6.4 | 0.00 | 0.00 | 0.00 | 81 | 1009.6 |
| 20260507101410 | 19 | 15 | 3.2 | 4.8 | 0.00 | 0.00 | 0.00 | 81 | 1009.4 |
| 20260507100411 | 19 | 13 | 0.0 | 6.4 | 0.00 | 0.00 | 0.00 | 81 | 1009.4 |
| 20260507095410 | 19 | 13 | 1.6 | 4.8 | 0.00 | 0.00 | 0.00 | 81 | 1009.2 |
| 20260507094414 | 19 | 13 | 0.0 | 3.2 | 0.00 | 0.00 | 0.00 | 80 | 1009.0 |
| 20260507093410 | 19 | 13 | 1.6 | 4.8 | 0.00 | 0.00 | 0.00 | 80 | 1009.0 |
| 20260507092410 | 19 | 20 | 0.0 | 6.4 | 0.00 | 0.00 | 0.00 | 80 | 1008.6 |
| 20260507091410 | 19 | 20 | 0.0 | 1.6 | 0.00 | 0.00 | 0.00 | 80 | 1008.8 |
| 20260507090410 | 19 | 20 | 1.6 | 8.0 | 0.00 | 0.00 | 0.00 | 79 | 1008.8 |
| 20260507085410 | 19 | 17 | 0.0 | 6.4 | 0.00 | 0.00 | 0.00 | 79 | 1009.1 |
| 20260507084410 | 19 | 17 | 0.0 | 4.8 | 0.00 | 0.00 | 0.00 | 79 | 1009.2 |
| 20260507083410 | 19 | 12 | 0.0 | 3.2 | 0.00 | 0.00 | 0.00 | 79 | 1009.2 |
| 20260507082410 | 19 | 12 | 3.2 | 6.4 | 0.00 | 0.00 | 0.00 | 79 | 1009.1 |
| 20260507081410 | 19 | 11 | 1.6 | 6.4 | 0.00 | 0.00 | 0.00 | 78 | 1009.0 |
| 20260507080410 | 19 | 13 | 3.2 | 4.8 | 0.00 | 0.00 | 0.00 | 78 | 1009.0 |
| 20260507075410 | 19 | 29 | 1.6 | 16.1 | 0.00 | 0.00 | 0.00 | 78 | 1009.0 |
| 20260507074410 | 19 | 25 | 1.6 | 9.7 | 0.00 | 0.00 | 0.00 | 78 | 1009.3 |
| 20260507073413 | 19 | 15 | 4.8 | 4.8 | 0.00 | 0.00 | 0.00 | 78 | 1009.3 |
| 20260507072410 | 19 | 15 | 0.0 | 3.2 | 0.00 | 0.00 | 0.00 | 78 | 1009.4 |
| 20260507071410 | 20 | 18 | 0.0 | 9.7 | 0.00 | 0.00 | 0.00 | 78 | 1009.6 |
| 20260507070409 | 20 | 19 | 1.6 | 11.3 | 0.00 | 0.00 | 0.00 | 78 | 1009.6 |
| 20260507065410 | 20 | 22 | 4.8 | 11.3 | 0.00 | 0.00 | 0.00 | 77 | 1009.5 |
| 20260507064410 | 20 | 0 | 3.2 | 8.0 | 0.00 | 0.00 | 0.00 | 78 | 1009.5 |
| 20260507063410 | 20 | 5 | 1.6 | 8.0 | 0.00 | 0.00 | 0.00 | 77 | 1009.5 |
| 20260507062410 | 20 | 5 | 0.0 | 4.8 | 0.00 | 0.00 | 0.00 | 77 | 1009.6 |
| 20260507061410 | 20 | 5 | 3.2 | 8.0 | 0.00 | 0.00 | 0.00 | 77 | 1009.0 |
| 20260507060410 | 20 | 338 | 3.2 | 6.4 | 0.00 | 0.00 | 0.00 | 77 | 1009.0 |
| 20260507055410 | 20 | 324 | 3.2 | 6.4 | 0.00 | 0.00 | 0.00 | 77 | 1009.1 |
| 20260507054411 | 20 | 323 | 1.6 | 6.4 | 0.00 | 0.00 | 0.00 | 77 | 1009.0 |
| 20260507053410 | 20 | 325 | 1.6 | 11.3 | 0.00 | 0.00 | 0.00 | 76 | 1009.0 |
| 20260507052410 | 20 | 16 | 0.0 | 4.8 | 0.00 | 0.00 | 0.00 | 76 | 1008.7 |
| 20260507051413 | 20 | 18 | 1.6 | 8.0 | 0.00 | 0.00 | 0.00 | 76 | 1009.1 |
| 20260507050413 | 21 | 17 | 1.6 | 6.4 | 0.00 | 0.00 | 0.00 | 76 | 1009.1 |
| 20260507045410 | 21 | 17 | 0.0 | 9.7 | 0.00 | 0.00 | 0.00 | 76 | 1009.1 |
| 20260507044409 | 21 | 338 | 0.0 | 8.0 | 0.00 | 0.00 | 0.00 | 75 | 1009.0 |
| 20260507043410 | 21 | 340 | 0.0 | 11.3 | 0.00 | 0.00 | 0.00 | 75 | 1009.0 |
| 20260507042410 | 21 | 286 | 4.8 | 9.7 | 0.00 | 0.00 | 0.00 | 74 | 1008.7 |
| 20260507041409 | 21 | 23 | 0.0 | 14.5 | 0.00 | 0.00 | 0.00 | 74 | 1009.0 |
| 20260507040413 | 21 | 331 | 3.2 | 11.3 | 0.00 | 0.00 | 0.00 | 73 | 1009.0 |
| 20260507035409 | 22 | 286 | 3.2 | 8.0 | 0.00 | 0.00 | 0.00 | 73 | 1009.0 |
| 20260507034410 | 22 | 323 | 9.7 | 9.7 | 0.00 | 0.00 | 0.00 | 73 | 1008.6 |
| 20260507033410 | 22 | 0 | 1.6 | 11.3 | 0.00 | 0.00 | 0.00 | 73 | 1008.6 |
| 20260507032409 | 22 | 281 | 4.8 | 14.5 | 0.00 | 0.00 | 0.00 | 73 | 1008.2 |
| 20260507031413 | 22 | 11 | 1.6 | 12.9 | 0.00 | 0.00 | 0.00 | 73 | 1007.9 |
| 20260507030409 | 22 | 317 | 0.0 | 6.4 | 0.00 | 0.00 | 0.00 | 73 | 1007.9 |
| 20260507025410 | 22 | 309 | 0.0 | 6.4 | 0.00 | 0.00 | 0.00 | 73 | 1007.7 |
| 20260507024410 | 23 | 308 | 3.2 | 9.7 | 0.00 | 0.00 | 0.00 | 73 | 1007.5 |
| 20260507023409 | 23 | 339 | 3.2 | 6.4 | 0.00 | 0.00 | 0.00 | 73 | 1007.5 |
| 20260507022410 | 23 | 339 | 3.2 | 9.7 | 0.00 | 0.00 | 0.00 | 72 | 1007.0 |
| 20260507021410 | 23 | 340 | 3.2 | 6.4 | 0.00 | 0.00 | 0.00 | 72 | 1006.9 |
| 20260507020409 | 23 | 9 | 4.8 | 9.7 | 0.00 | 0.00 | 0.00 | 72 | 1006.9 |
| 20260507015409 | 23 | 327 | 0.0 | 9.7 | 0.00 | 0.00 | 0.00 | 73 | 1006.6 |
| 20260507014410 | 23 | 280 | 1.6 | 4.8 | 0.00 | 0.00 | 0.00 | 73 | 1006.5 |
| 20260507013409 | 23 | 37 | 1.6 | 8.0 | 0.00 | 0.00 | 0.00 | 73 | 1006.5 |
| 20260507012409 | 24 | 310 | 0.0 | 6.4 | 0.00 | 0.00 | 0.00 | 72 | 1006.1 |
| 20260507011410 | 25 | 15 | 0.0 | 11.3 | 0.00 | 0.00 | 0.00 | 72 | 1006.0 |
| 20260507010413 | 25 | 286 | 3.2 | 11.3 | 0.00 | 0.00 | 0.00 | 72 | 1006.0 |
| 20260507005410 | 25 | 35 | 0.0 | 16.1 | 0.00 | 0.00 | 0.00 | 72 | 1005.6 |
| 20260507004409 | 26 | 333 | 6.4 | 8.0 | 0.00 | 0.00 | 0.00 | 71 | 1005.4 |
| 20260507003409 | 26 | 325 | 0.0 | 11.3 | 0.00 | 0.00 | 0.00 | 70 | 1005.4 |
| 20260507002409 | 27 | 334 | 0.0 | 8.0 | 0.00 | 0.00 | 0.00 | 68 | 1005.1 |
| 20260507001410 | 28 | 304 | 3.2 | 9.7 | 0.00 | 0.00 | 0.00 | 66 | 1004.6 |
| 20260507000410 | 30 | 213 | 0.0 | 4.8 | 0.00 | 0.00 | 0.00 | 69 | 1004.7 |
| 20260506235409 | 30 | 213 | 3.2 | 6.4 | 0.00 | 0.00 | 0.00 | 66 | 1004.5 |
| 20260506234409 | 30 | 213 | 0.0 | 1.6 | 0.00 | 0.00 | 0.00 | 66 | 1004.5 |
| 20260506233409 | 30 | 213 | 1.6 | 3.2 | 0.00 | 0.00 | 0.00 | 66 | 1004.5 |
| 20260506232413 | 30 | 213 | 1.6 | 3.2 | 0.00 | 0.00 | 0.00 | 65 | 1004.4 |
| 20260506231413 | 31 | 213 | 1.6 | 3.2 | 0.00 | 0.00 | 0.00 | 65 | 1004.2 |
| 20260506230409 | 31 | 213 | 0.0 | 3.2 | 0.00 | 0.00 | 0.00 | 65 | 1004.2 |
| 20260506225410 | 31 | 213 | 1.6 | 3.2 | 0.00 | 0.00 | 0.00 | 65 | 1004.1 |
| 20260506224409 | 31 | 213 | 4.8 | 6.4 | 0.00 | 0.00 | 0.00 | 64 | 1004.3 |
| 20260506223410 | 31 | 213 | 0.0 | 4.8 | 0.00 | 0.00 | 0.00 | 64 | 1004.3 |
| 20260506222410 | 31 | 213 | 1.6 | 4.8 | 0.00 | 0.00 | 0.00 | 63 | 1004.1 |
| 20260506221409 | 31 | 214 | 1.6 | 3.2 | 0.00 | 0.00 | 0.00 | 63 | 1004.1 |
| 20260506220409 | 31 | 214 | 3.2 | 4.8 | 0.00 | 0.00 | 0.00 | 63 | 1004.1 |
| 20260506215409 | 31 | 186 | 4.8 | 9.7 | 0.00 | 0.00 | 0.00 | 63 | 1004.1 |
| 20260506214410 | 31 | 186 | 4.8 | 8.0 | 0.00 | 0.00 | 0.00 | 64 | 1004.1 |
| 20260506213409 | 31 | 165 | 3.2 | 9.7 | 0.00 | 0.00 | 0.00 | 65 | 1004.1 |
| 20260506212410 | 31 | 181 | 3.2 | 6.4 | 0.00 | 0.00 | 0.00 | 67 | 1004.1 |
| 20260506211412 | 31 | 181 | 0.0 | 8.0 | 0.00 | 0.00 | 0.00 | 67 | 1004.5 |
| 20260506210409 | 31 | 180 | 0.0 | 8.0 | 0.00 | 0.00 | 0.00 | 66 | 1004.5 |
| 20260506205410 | 31 | 175 | 1.6 | 8.0 | 0.00 | 0.00 | 0.00 | 67 | 1004.6 |
| 20260506204412 | 30 | 177 | 3.2 | 6.4 | 0.00 | 0.00 | 0.00 | 69 | 1004.6 |
| 20260506203409 | 30 | 166 | 4.8 | 6.4 | 0.00 | 0.00 | 0.00 | 69 | 1004.6 |
| 20260506202409 | 30 | 166 | 1.6 | 8.0 | 0.00 | 0.00 | 0.00 | 71 | 1004.8 |
| 20260506201409 | 30 | 167 | 3.2 | 8.0 | 0.00 | 0.00 | 0.00 | 71 | 1004.9 |
| 20260506200409 | 30 | 161 | 0.0 | 8.0 | 0.00 | 0.00 | 0.00 | 70 | 1004.9 |
| 20260506195409 | 30 | 158 | 1.6 | 9.7 | 0.00 | 0.00 | 0.00 | 68 | 1004.9 |
| 20260506194409 | 30 | 159 | 1.6 | 6.4 | 0.00 | 0.00 | 0.00 | 68 | 1005.0 |
| 20260506193409 | 30 | 153 | 1.6 | 8.0 | 0.00 | 0.00 | 0.00 | 69 | 1005.0 |
| 20260506192409 | 30 | 152 | 1.6 | 11.3 | 0.00 | 0.00 | 0.00 | 69 | 1005.1 |
| 20260506191409 | 30 | 145 | 4.8 | 16.1 | 0.00 | 0.00 | 0.00 | 69 | 1005.4 |
| 20260506190412 | 30 | 165 | 8.0 | 8.0 | 0.00 | 0.00 | 0.00 | 70 | 1005.4 |
| 20260506185410 | 30 | 146 | 1.6 | 8.0 | 0.00 | 0.00 | 0.00 | 71 | 1005.6 |
| 20260506184409 | 29 | 151 | 3.2 | 6.4 | 0.00 | 0.00 | 0.00 | 73 | 1005.6 |
| 20260506183409 | 29 | 151 | 1.6 | 8.0 | 0.00 | 0.00 | 0.00 | 74 | 1005.6 |
| 20260506182409 | 29 | 151 | 8.0 | 8.0 | 0.00 | 0.00 | 0.00 | 75 | 1006.0 |
| 20260506181409 | 28 | 151 | 0.0 | 4.8 | 0.00 | 0.00 | 0.00 | 75 | 1006.2 |
| 20260506180409 | 28 | 151 | 0.0 | 3.2 | 0.00 | 0.00 | 0.00 | 76 | 1006.2 |
| 20260506175409 | 28 | 151 | 0.0 | 6.4 | 0.00 | 0.00 | 0.00 | 78 | 1006.6 |
| 20260506174412 | 28 | 151 | 0.0 | 3.2 | 0.00 | 0.00 | 0.00 | 78 | 1006.8 |
| 20260506173409 | 28 | 151 | 0.0 | 6.4 | 0.00 | 0.00 | 0.00 | 79 | 1006.8 |
| 20260506172409 | 27 | 151 | 3.2 | 6.4 | 0.00 | 0.00 | 0.00 | 79 | 1006.8 |
| 20260506171409 | 27 | 151 | 1.6 | 3.2 | 0.00 | 0.00 | 0.00 | 80 | 1007.0 |
| 20260506170409 | 27 | 151 | 0.0 | 8.0 | 0.00 | 0.00 | 0.00 | 81 | 1007.0 |
| 20260506165409 | 27 | 151 | 1.6 | 6.4 | 0.00 | 0.00 | 0.00 | 82 | 1007.0 |
| 20260506164409 | 27 | 151 | 4.8 | 8.0 | 0.00 | 0.00 | 0.00 | 82 | 1007.0 |
| 20260506163412 | 26 | 151 | 1.6 | 4.8 | 0.00 | 0.00 | 0.00 | 82 | 1007.0 |
| 20260506162409 | 26 | 151 | 0.0 | 6.4 | 0.00 | 0.00 | 0.00 | 82 | 1006.6 |